Location: Maiden_LMO
(35.5760°N, 81.2120°W)
Time: 16:36:46
(UTC-04:00)

Daily predictions for brighter satellites

Satellite Brightness Start Highest point End
(mag) Time Altitude Azimuth Time Altitude Azimuth Time Altitude Azimuth
ATLAS CENTAUR R/B 3.8 20:38:38 10° S 20:43:28 48° ESE 20:56:32 10° NE
Cosmos 1674 Rocket 3.6 20:49:41 10° S 20:54:06 78° E 20:58:35 10° N
Okean 3 3.5 20:51:31 10° S 20:55:47 74° E 21:00:04 10° N
Cosmos 1975 Rocket 4.4 20:52:45 10° SE 20:55:53 20° E 20:59:02 10° NE
YAOGAN 6 2.7 20:55:58 10° SSE 20:59:37 59° ENE 21:03:14 10° N
Shenzhou-11 Module 4.4 20:57:23 10° NW 20:59:39 19° N 21:01:55 10° NE
Okean 1 Rocket 3.7 20:56:15 10° N 21:00:19 38° E 21:04:21 10° SSE
Cosmos 1242 Rocket 4.3 21:04:09 10° NNE 21:06:41 18° ENE 21:09:11 10° ESE
Cosmos 2360 4.3 21:03:35 10° NNW 21:09:20 88° ENE 21:15:02 10° SSE
BREEZE-M R/B 4.4 21:04:10 10° WSW 21:09:45 42° NW 21:12:51 10° NE
Thor Agena Rocket 3.6 21:07:08 10° NNE 21:12:25 89° ESE 21:17:36 10° SSW
Cosmos 2084 3.5 21:09:31 10° SSW 21:13:52 59° ESE 21:17:59 10° NE
Atlas Centaur 2 2.0 21:12:51 10° WSW 21:16:34 34° S 21:19:24 13° SE
Cosmos 1697 Rocket 3.9 21:12:44 10° NW 21:18:02 41° WSW 21:23:17 10° S
Cosmos 2233 Rocket 4.1 21:12:37 10° SSE 21:18:34 55° E 21:24:35 10° NNE
SJ-6B 4.2 21:17:30 10° SSW 21:20:57 36° W 21:24:25 10° NNW
Cosmos 1500 3.9 21:18:04 10° NNW 21:21:52 56° W 21:25:38 10° S
Cosmos 1975 3.1 21:19:19 10° N 21:23:13 47° E 21:26:50 11° SSE
Resurs 01 Rocket 1.6 21:22:13 10° SSE 21:26:37 83° ENE 21:31:02 10° N
Spot 2 Rocket 3.6 21:22:31 10° SSE 21:27:29 61° ENE 21:32:26 10° N
OAO 1 Rocket 4.4 21:22:47 10° W 21:28:07 84° S 21:33:28 10° E
Cosmos 2360 Rocket 4.0 21:25:11 10° NNE 21:28:44 17° NE 21:32:17 10° E
deb Kosmos-1763 4.0 21:25:36 10° SSW 21:29:17 81° ESE 21:33:00 10° NNE
Cosmos 468 Rocket 4.0 21:25:28 10° SSW 21:30:45 87° ESE 21:36:01 10° NNE
Cosmos 1980 Rocket 2.7 21:26:16 10° NNW 21:31:50 58° WSW 21:37:22 10° S
ERS-2 2.4 21:29:57 10° S 21:33:36 67° WSW 21:37:17 10° NNW
ATLAS CENTAUR R/B 2.8 21:29:52 10° NW 21:34:13 41° WSW 21:38:45 10° S
BREEZE-M DEB (TANK) 1.2 21:32:22 10° NW 21:35:12 66° NE 21:36:08 27° ESE
Cosmos 1937 Rocket 4.2 21:30:35 10° N 21:35:19 36° ENE 21:38:37 18° SE
Cosmos 1666 2.8 21:32:41 10° N 21:36:31 58° E 21:39:27 16° SSE
Cosmos 1763 Rocket 3.6 21:31:43 10° S 21:36:56 60° ESE 21:42:08 10° NNE
Cosmos 841 Rocket 3.8 21:37:36 10° S 21:42:32 45° ESE 21:47:32 10° NNE
Meteor 1-12 Rocket 4.4 21:37:45 10° N 21:43:43 72° E 21:49:05 13° SSE
EPKM 3.7 21:42:37 10° WSW 21:47:19 21° SSW 21:48:26 18° S
Delta 7925 Rocket 4.3 21:43:36 10° WSW 21:47:31 26° S 21:49:13 21° SSE
Cosmos 1743 2.6 21:45:14 10° N 21:49:04 79° E 21:51:39 20° S
GPS 2-05 Rocket1 3.7 21:48:31 10° SW 21:51:14 27° SSE 21:51:14 27° SSE
Iridium 2 3.6 21:49:32 18° S 21:52:15 65° E 21:56:03 10° N
GPS 2-04 Rocket1 4.2 21:50:33 10° W 21:54:08 27° SSW 21:55:49 21° S
USA 234 3.6 21:52:06 10° NE 21:58:38 70° NW 22:05:08 10° SW
Cosmos 858 Rocket 4.5 21:53:29 10° NNW 21:58:41 72° ENE 22:01:47 25° SSE
Centaur D-1A AC-31 2.1 21:54:14 10° WSW 21:59:35 29° SSW 22:00:42 24° SSE
Cosmos 1833 4.2 21:57:16 10° S 22:02:53 59° ESE 22:08:29 10° NNE
Meteor 2-4 Rocket 3.6 21:58:25 11° S 22:03:33 72° E 22:09:05 10° NNE
Lacrosse 5 rocket 3.5 22:02:22 10° N 22:05:13 17° NE 22:07:25 12° ENE
ERS-1 Rocket 3.5 22:07:46 29° ESE 22:09:46 43° ENE 22:14:30 10° N
Cosmos 1464 Rocket 4.1 22:05:11 18° SSE 22:09:51 60° E 22:16:07 10° NNE
USA 245 3.8 22:16:24 35° E 22:16:43 36° ENE 22:20:30 10° N
Cosmos 1356 3.3 22:17:03 58° SE 22:17:29 66° E 22:20:56 10° NNE
Cosmos 1515 3.8 22:17:00 48° SE 22:17:31 52° E 22:21:15 10° NNE
ARGOS 3.1 22:15:18 27° SSE 22:18:19 86° ENE 22:23:45 10° NNW
Cosmos 1898 Rocket 4.0 22:14:19 10° NNW 22:19:30 57° WSW 22:22:49 22° S
H-2A R/B 1.9 22:19:42 35° SSE 22:21:45 72° ENE 22:26:45 10° N
Tiangong 2 3.5 22:20:21 10° WNW 22:22:53 22° N 22:25:10 11° NE
Cosmos 2322 Rocket 2.3 22:17:51 10° NNW 22:23:26 72° WSW 22:26:18 30° S
CENTAUR R/B 2.7 22:18:12 10° SW 22:23:59 72° WNW 22:30:40 10° NNE
Cosmos 1455 Rocket 2.9 22:21:31 10° N 22:25:54 83° E 22:27:13 45° SSE
Cosmos 1340 Rocket 3.0 22:25:14 27° SSW 22:27:19 71° W 22:31:24 10° N
Cosmos 1891 Rocket 4.4 22:24:10 24° S 22:28:02 75° E 22:34:21 10° N
Cosmos 292 Rocket 4.1 22:24:47 10° SSW 22:29:29 63° WNW 22:34:13 10° N
SL-16 R/B 2.7 22:27:20 10° NNW 22:32:52 55° WSW 22:35:44 28° S
Cosmos 990 Rocket 4.4 22:30:16 10° NNW 22:35:22 56° WSW 22:37:44 30° SSW
Shenzhou-11 Module 3.3 22:33:26 10° NW 22:36:04 34° N 22:36:04 34° N
DMSP B5D2-2 4.0 22:36:22 10° NNE 22:41:41 77° ESE 22:43:33 41° S
Helios 1A 3.1 22:41:57 56° E 22:42:04 56° ENE 22:46:09 10° N
Aureole 2 Rocket 3.4 22:41:11 10° NNW 22:43:07 37° NW 22:43:07 37° NW
Cosmos 836 Rocket 4.3 22:43:06 45° S 22:44:41 75° ESE 22:49:53 10° NNE
MetOp-B 4.5 22:44:58 34° SSW 22:47:13 60° WSW 22:52:31 10° NNW
Cosmos 2219 3.9 22:48:54 36° E 22:48:54 36° E 22:53:33 10° NE
Okean 2 3.5 22:50:55 63° ENE 22:50:55 63° ENE 22:54:41 10° NNE
Cosmos 2237 4.4 22:46:09 10° NNW 22:51:49 58° ENE 22:52:56 49° ESE
Cosmos 1544 Rocket 4.4 22:48:57 10° NNW 22:53:11 45° W 22:54:28 35° SW
Meteor 1-15 Rocket 4.1 22:50:21 10° N 22:56:05 85° E 22:57:22 56° SSE
CZ-4C R/B 3.8 22:53:23 10° NNW 23:00:09 39° NE 23:03:19 29° E
Cosmos 1356 Rocket 3.7 23:03:26 63° NE 23:03:26 63° NE 23:07:08 10° NNE
SJ 16-02 1.3 23:01:07 10° NNW 23:05:18 75° NNE 23:05:18 75° NNE
Cosmos 540 Rocket 4.5 23:06:54 17° SW 23:10:32 44° WNW 23:15:28 10° N
Cosmos 2360 Rocket 2.3 23:07:36 10° NNW 23:13:11 65° WSW 23:14:04 56° SSW
OAO 1 Rocket 4.4 23:08:29 10° W 23:13:32 71° SW 23:13:32 71° SW
Helios 1B rocket 2.8 23:10:10 10° N 23:13:58 64° NW 23:13:58 64° NW
Landsat 7 3.7 23:14:41 87° NW 23:14:41 87° NW 23:19:24 10° NNW
Cosmos 2333 4.4 23:10:01 10° NNW 23:15:35 55° ENE 23:15:58 54° E
CZ-2C R/B 3.6 23:10:31 10° NNE 23:14:47 36° ENE 23:14:47 36° ENE
Cosmos 2219 Rocket 3.0 23:12:09 10° N 23:17:17 36° ENE 23:17:36 36° ENE
Cosmos 1092 Rocket 3.9 23:13:39 10° N 23:19:59 69° E 23:20:43 63° ESE
IGS 5A 4.1 23:21:30 53° N 23:21:30 53° N 23:24:44 10° N
Nadezhda 4 Rocket 4.0 23:16:15 10° N 23:22:33 76° W 23:23:53 57° SSW
SPOT 5 3.5 23:28:41 43° W 23:28:41 43° W 23:32:46 10° NNW
SL-19 R/B 4.4 23:30:46 68° SSW 23:31:33 80° WSW 23:38:01 10° NNW
Terra 2.0 23:33:59 68° NNW 23:33:59 68° NNW 23:38:09 10° NNW
CARTOSAT-1 4.4 23:39:20 48° NW 23:39:20 48° NW 23:42:38 10° NNW
Cosmos 372 Rocket 4.4 23:34:19 10° NNW 23:39:00 54° W 23:39:00 54° W
Cosmos 2333 Rocket 2.7 23:34:14 10° N 23:39:38 50° ENE 23:39:38 50° ENE
CZ-2C R/B 3.1 23:41:20 76° NNE 23:41:20 76° NNE 23:46:35 10° N
COSMOS 2428 2.6 23:37:09 10° NNW 23:42:36 83° N 23:42:36 83° N
Lacrosse 5 rocket 2.9 23:40:41 10° NW 23:43:05 32° WNW 23:43:05 32° WNW
NOSS 0 Rocket 4.4 23:40:33 10° N 23:46:32 46° ENE 23:46:47 46° ENE
Cosmos 2026 Rocket 3.9 23:43:23 10° N 23:49:21 73° ENE 23:49:21 73° ENE
Cosmos 2279 Rocket 4.1 23:50:11 62° ENE 23:50:11 62° ENE 23:55:54 10° NNE
Cosmos 1655 Rocket 4.4 23:47:09 10° N 23:53:03 50° ENE 23:53:03 50° ENE
